Location: Champseau
(45.8333°N, 1.7667°E)
Time: 15:35:33
(UTC+00:00)

BREEZE-M DEB (TANK) - Visible Passes

Search period start: 03 August 2021 00:00
Search period end: 13 August 2021 00:00
Orbit: 288 x 13009 km, 49.6° (Epoch: 02 August)

Date Brightness Start Highest point End Pass type
(mag) Time Alt. Az. Time Alt. Az. Time Alt. Az.
03 Aug 6.9 01:42:16 11° S 02:01:27 22° SE 02:09:40 10° E visible
04 Aug 6.4 02:23:12 12° SSW 02:44:23 31° SE 02:51:52 10° E visible
05 Aug 5.7 03:04:01 10° SSW 03:26:55 41° SSE 03:33:21 10° E visible
06 Aug 5.0 03:47:58 10° SW 04:09:02 54° SSE 04:14:27 10° ENE visible
07 Aug 7.3 00:18:32 12° SSE 00:27:18 15° SE 00:35:29 10° ESE visible
08 Aug 7.0 00:59:02 17° SSE 01:10:31 22° SE 01:19:46 10° E visible
09 Aug 6.5 01:39:27 20° S 01:53:30 31° SE 02:02:01 10° E visible
10 Aug 5.9 02:19:46 20° SSW 02:36:08 41° SSE 02:43:29 10° E visible
11 Aug 5.3 03:00:01 17° SW 03:18:18 53° SSE 03:24:31 10° ENE visible
11 Aug 7.4 23:33:28 14° SE 23:35:35 14° SE 23:44:25 10° ESE visible
12 Aug 4.7 03:40:11 12° SW 04:00:04 68° SSE 04:05:19 10° ENE visible
